Time,TemperatureF,DewpointF,PressureIn,WindDirection,WindDirectionDegrees,WindSpeedMPH,WindSpeedGustMPH,Humidity,HourlyPrecipIn,Conditions,Clouds,dailyrainin,SoftwareType,DateUTC
2013-09-01 00:01:00,73.0,54.9,29.38,WNW,296,0.0,0.0,53,0.00,,CLR,0.00,VWS V14.01,2013-09-01 04:01:00,
2013-09-01 00:02:00,73.0,54.9,29.38,WNW,296,0.0,0.0,53,0.00,,CLR,0.00,VWS V14.01,2013-09-01 04:02:00,
2013-09-01 00:07:00,73.2,56.1,29.38,WNW,296,0.0,0.0,55,0.00,,CLR,0.00,VWS V14.01,2013-09-01 04:07:00,
2013-09-01 00:12:00,73.2,56.1,29.38,WNW,296,0.0,0.0,55,0.00,,CLR,0.00,VWS V14.01,2013-09-01 04:12:00,
2013-09-01 00:17:00,73.2,56.1,29.38,WNW,296,0.0,0.0,55,0.00,,CLR,0.00,VWS V14.01,2013-09-01 04:17:00,
2013-09-01 00:22:00,73.2,56.6,29.38,WNW,296,0.0,0.0,56,0.00,,CLR,0.00,VWS V14.01,2013-09-01 04:22:00,
2013-09-01 00:27:00,73.2,56.6,29.38,WNW,297,0.0,0.0,56,0.00,,CLR,0.00,VWS V14.01,2013-09-01 04:27:00,
2013-09-01 00:32:00,73.2,56.6,29.38,WNW,296,0.0,0.0,56,0.00,,CLR,0.00,VWS V14.01,2013-09-01 04:32:00,
2013-09-01 00:37:00,73.2,56.6,29.38,WNW,297,0.0,0.0,56,0.00,,CLR,0.00,VWS V14.01,2013-09-01 04:37:00,
2013-09-01 00:42:00,73.0,56.9,29.38,SSE,148,0.0,0.0,57,0.00,,CLR,0.00,VWS V14.01,2013-09-01 04:42:00,
2013-09-01 00:47:00,73.0,56.9,29.38,SSE,148,0.0,0.0,57,0.00,,CLR,0.00,VWS V14.01,2013-09-01 04:47:00,
2013-09-01 00:52:00,73.0,56.9,29.38,SSE,148,0.0,0.0,57,0.00,,CLR,0.00,VWS V14.01,2013-09-01 04:52:00,
2013-09-01 00:57:00,73.0,57.4,29.38,SSE,148,0.0,0.0,58,0.00,,CLR,0.00,VWS V14.01,2013-09-01 04:57:00,
2013-09-01 01:02:00,73.0,57.4,29.38,SSE,148,0.0,0.0,58,0.00,,SCT110,0.00,VWS V14.01,2013-09-01 05:02:00,
2013-09-01 01:07:00,73.0,57.4,29.38,SSE,148,0.0,0.0,58,0.00,,SCT110,0.00,VWS V14.01,2013-09-01 05:07:00,
2013-09-01 01:12:00,73.0,57.4,29.38,SSE,148,0.0,0.0,58,0.00,,SCT110,0.00,VWS V14.01,2013-09-01 05:12:00,
2013-09-01 01:17:00,73.0,57.4,29.38,ESE,105,0.0,0.0,58,0.00,,SCT110,0.00,VWS V14.01,2013-09-01 05:17:00,
2013-09-01 01:22:00,73.0,57.9,29.38,SSE,159,0.0,0.0,59,0.00,,SCT110,0.00,VWS V14.01,2013-09-01 05:22:00,
2013-09-01 01:27:00,73.0,58.3,29.38,SSE,159,0.0,0.0,60,0.00,,SCT110,0.00,VWS V14.01,2013-09-01 05:27:00,
2013-09-01 01:32:00,73.0,58.3,29.38,SSE,159,0.0,0.0,60,0.00,,SCT110,0.00,VWS V14.01,2013-09-01 05:32:00,
2013-09-01 01:37:00,73.0,58.3,29.38,SSE,159,0.0,0.0,60,0.00,,SCT110,0.00,VWS V14.01,2013-09-01 05:37:00,
2013-09-01 01:42:00,73.0,58.3,29.38,SSE,159,0.0,0.0,60,0.00,,SCT110,0.00,VWS V14.01,2013-09-01 05:42:00,
2013-09-01 01:47:00,73.0,58.3,29.38,SSE,159,0.0,0.0,60,0.00,,SCT110,0.00,VWS V14.01,2013-09-01 05:47:00,
2013-09-01 01:52:00,73.0,58.8,29.35,SSE,159,0.0,0.0,61,0.00,,SCT110,0.00,VWS V14.01,2013-09-01 05:52:00,
2013-09-01 01:57:00,72.9,58.6,29.35,SSE,159,0.0,0.0,61,0.00,,SCT110,0.00,VWS V14.01,2013-09-01 05:57:00,
2013-09-01 02:02:00,72.9,58.6,29.35,SSE,159,0.0,0.0,61,0.00,,FEW110,0.00,VWS V14.01,2013-09-01 06:02:00,
2013-09-01 02:07:00,72.9,58.6,29.38,SSE,159,0.0,0.0,61,0.00,,FEW110,0.00,VWS V14.01,2013-09-01 06:07:00,
2013-09-01 02:12:00,72.9,58.6,29.38,SSE,159,0.0,0.0,61,0.00,,FEW110,0.00,VWS V14.01,2013-09-01 06:12:00,
2013-09-01 02:17:00,72.9,58.6,29.38,SSE,159,0.0,0.0,61,0.00,,FEW110,0.00,VWS V14.01,2013-09-01 06:17:00,
2013-09-01 02:22:00,72.9,58.6,29.38,SSE,159,0.0,0.0,61,0.00,,FEW110,0.00,VWS V14.01,2013-09-01 06:22:00,
2013-09-01 02:27:00,72.7,58.5,29.38,SSE,159,0.0,0.0,61,0.00,,FEW110,0.00,VWS V14.01,2013-09-01 06:27:00,
2013-09-01 02:32:00,72.7,58.5,29.38,SSE,159,0.0,0.0,61,0.00,,FEW110,0.00,VWS V14.01,2013-09-01 06:32:00,
2013-09-01 02:37:00,72.5,58.3,29.38,SSE,159,0.0,0.0,61,0.00,,FEW110,0.00,VWS V14.01,2013-09-01 06:37:00,
2013-09-01 02:42:00,72.5,58.8,29.38,SSE,159,0.0,0.0,62,0.00,,FEW110,0.00,VWS V14.01,2013-09-01 06:42:00,
2013-09-01 02:47:00,72.5,58.8,29.38,SSE,159,0.0,0.0,62,0.00,,FEW110,0.00,VWS V14.01,2013-09-01 06:47:00,
2013-09-01 02:52:00,72.3,58.6,29.35,SSE,159,0.0,0.0,62,0.00,,FEW110,0.00,VWS V14.01,2013-09-01 06:52:00,
2013-09-01 02:57:00,72.3,58.1,29.35,SSE,159,0.0,0.0,61,0.00,,FEW110,0.00,VWS V14.01,2013-09-01 06:57:00,
2013-09-01 03:02:00,72.1,58.0,29.35,SSE,159,0.0,0.0,61,0.00,,FEW070,0.00,VWS V14.01,2013-09-01 07:02:00,
2013-09-01 03:07:00,72.0,58.2,29.35,SSE,159,0.0,0.0,62,0.00,,FEW070,0.00,VWS V14.01,2013-09-01 07:07:00,
2013-09-01 03:12:00,72.0,58.2,29.35,SSE,159,0.0,0.0,62,0.00,,FEW070,0.00,VWS V14.01,2013-09-01 07:12:00,
2013-09-01 03:17:00,72.0,58.2,29.35,SSE,159,0.0,0.0,62,0.00,,FEW070,0.00,VWS V14.01,2013-09-01 07:17:00,
2013-09-01 03:22:00,71.8,58.5,29.35,SSE,159,0.0,0.0,63,0.00,,FEW070,0.00,VWS V14.01,2013-09-01 07:22:00,
2013-09-01 03:27:00,71.8,58.5,29.35,SSE,159,0.0,0.0,63,0.00,,FEW070,0.00,VWS V14.01,2013-09-01 07:27:00,
2013-09-01 03:32:00,71.8,58.5,29.35,SSE,159,0.0,0.0,63,0.00,,FEW070,0.00,VWS V14.01,2013-09-01 07:32:00,
2013-09-01 03:37:00,71.8,58.5,29.35,SSE,159,0.0,0.0,63,0.00,,FEW070,0.00,VWS V14.01,2013-09-01 07:37:00,
2013-09-01 03:42:00,71.8,59.0,29.35,SSE,159,0.0,0.0,64,0.00,,FEW070,0.00,VWS V14.01,2013-09-01 07:42:00,
2013-09-01 03:47:00,71.8,58.5,29.35,SSE,159,0.0,0.0,63,0.00,,FEW070,0.00,VWS V14.01,2013-09-01 07:47:00,
2013-09-01 03:52:00,71.8,58.5,29.35,SSE,159,0.0,0.0,63,0.00,,FEW070,0.00,VWS V14.01,2013-09-01 07:52:00,
2013-09-01 03:57:00,71.6,58.8,29.35,SSE,159,0.0,0.0,64,0.00,,FEW070,0.00,VWS V14.01,2013-09-01 07:57:00,
2013-09-01 04:02:00,71.6,58.8,29.35,SSE,159,0.0,0.0,64,0.00,,FEW020,0.00,VWS V14.01,2013-09-01 08:02:00,
2013-09-01 04:07:00,71.6,58.8,29.35,SSE,159,0.0,0.0,64,0.00,,FEW020,0.00,VWS V14.01,2013-09-01 08:07:00,
2013-09-01 04:12:00,71.6,58.8,29.35,SSE,159,0.0,0.0,64,0.00,,FEW020,0.00,VWS V14.01,2013-09-01 08:12:00,
2013-09-01 04:17:00,71.6,58.8,29.35,SSE,159,0.0,0.0,64,0.00,,FEW020,0.00,VWS V14.01,2013-09-01 08:17:00,
2013-09-01 04:22:00,71.6,58.8,29.35,SSE,159,0.0,0.0,64,0.00,,FEW020,0.00,VWS V14.01,2013-09-01 08:22:00,
2013-09-01 04:27:00,71.6,58.8,29.35,SSE,159,0.0,0.0,64,0.00,,FEW020,0.00,VWS V14.01,2013-09-01 08:27:00,
2013-09-01 04:32:00,71.4,59.0,29.35,SSE,159,0.0,0.0,65,0.00,,FEW020,0.00,VWS V14.01,2013-09-01 08:32:00,
2013-09-01 04:37:00,71.4,59.0,29.35,SSE,159,0.0,0.0,65,0.00,,FEW020,0.00,VWS V14.01,2013-09-01 08:37:00,
2013-09-01 04:42:00,71.4,59.0,29.35,SSE,159,0.0,0.0,65,0.00,,FEW020,0.00,VWS V14.01,2013-09-01 08:42:00,
2013-09-01 04:47:00,71.4,59.0,29.35,SSE,159,0.0,0.0,65,0.00,,FEW020,0.00,VWS V14.01,2013-09-01 08:47:00,
2013-09-01 04:52:00,71.4,59.5,29.38,SSE,159,0.0,0.0,66,0.00,,BKN019,0.00,VWS V14.01,2013-09-01 08:52:00,
2013-09-01 04:57:00,71.4,59.5,29.38,SSE,159,0.0,0.0,66,0.00,,BKN019,0.00,VWS V14.01,2013-09-01 08:57:00,
2013-09-01 05:02:00,71.6,59.7,29.38,SSE,159,0.0,0.0,66,0.00,,SCT019,0.00,VWS V14.01,2013-09-01 09:02:00,
2013-09-01 05:07:00,71.6,59.7,29.38,SSE,159,0.0,0.0,66,0.00,,SCT019,0.00,VWS V14.01,2013-09-01 09:07:00,
2013-09-01 05:12:00,71.6,59.7,29.38,SSE,159,0.0,0.0,66,0.00,,BKN019,0.00,VWS V14.01,2013-09-01 09:12:00,
2013-09-01 05:17:00,71.6,59.7,29.38,SSE,159,0.0,0.0,66,0.00,,BKN019,0.00,VWS V14.01,2013-09-01 09:17:00,
2013-09-01 05:22:00,71.8,60.2,29.38,SSE,159,0.0,0.0,67,0.00,,BKN019,0.00,VWS V14.01,2013-09-01 09:22:00,
2013-09-01 05:27:00,71.8,60.2,29.38,SSE,159,0.0,0.0,67,0.00,,BKN019,0.00,VWS V14.01,2013-09-01 09:27:00,
2013-09-01 05:32:00,71.8,60.2,29.38,SSE,159,0.0,0.0,67,0.00,,BKN019,0.00,VWS V14.01,2013-09-01 09:32:00,
2013-09-01 05:37:00,71.8,60.2,29.38,SSE,159,0.0,0.0,67,0.00,,BKN019,0.00,VWS V14.01,2013-09-01 09:37:00,
2013-09-01 05:42:00,71.8,60.2,29.38,SSE,159,0.0,0.0,67,0.00,,BKN019,0.00,VWS V14.01,2013-09-01 09:42:00,
2013-09-01 07:31:00,72.7,61.9,29.38,SSE,159,0.0,0.0,69,0.00,,BKN019,0.00,VWS V14.01,2013-09-01 11:31:00,
2013-09-01 07:36:00,72.9,62.1,29.38,SSE,159,0.0,0.0,69,0.00,,BKN019,0.00,VWS V14.01,2013-09-01 11:36:00,
2013-09-01 07:41:00,73.0,62.3,29.41,SSE,159,0.0,0.0,69,0.00,,BKN019,0.00,VWS V14.01,2013-09-01 11:41:00,
2013-09-01 07:46:00,73.0,62.3,29.41,SSE,159,0.0,0.0,69,0.00,,BKN019,0.00,VWS V14.01,2013-09-01 11:46:00,
2013-09-01 07:51:00,73.2,62.5,29.41,SSE,159,0.0,0.0,69,0.00,,BKN019,0.00,VWS V14.01,2013-09-01 11:51:00,
2013-09-01 07:56:00,73.4,62.2,29.38,SSE,159,0.0,0.0,68,0.00,,BKN019,0.00,VWS V14.01,2013-09-01 11:56:00,
2013-09-01 08:01:00,73.6,62.4,29.38,SSE,159,0.0,0.0,68,0.00,,OVC017,0.00,VWS V14.01,2013-09-01 12:01:00,
2013-09-01 08:06:00,73.8,62.1,29.38,SSE,159,0.0,0.0,67,0.00,,OVC017,0.00,VWS V14.01,2013-09-01 12:06:00,
2013-09-01 08:11:00,73.9,62.3,29.41,SSE,159,0.0,0.0,67,0.00,,OVC017,0.00,VWS V14.01,2013-09-01 12:11:00,
2013-09-01 08:16:00,74.3,62.2,29.41,SSE,159,0.0,0.0,66,0.00,,OVC017,0.00,VWS V14.01,2013-09-01 12:16:00,
2013-09-01 08:21:00,74.5,62.0,29.41,SSE,159,0.0,0.0,65,0.00,,OVC017,0.00,VWS V14.01,2013-09-01 12:21:00,
2013-09-01 08:26:00,74.7,61.7,29.41,WNW,300,0.0,0.0,64,0.00,,OVC017,0.00,VWS V14.01,2013-09-01 12:26:00,
2013-09-01 08:31:00,74.7,58.9,29.41,WNW,300,0.0,0.0,58,0.00,,OVC017,0.00,VWS V14.01,2013-09-01 12:31:00,
2013-09-01 08:36:00,74.8,57.1,29.41,WNW,300,0.0,0.0,54,0.00,,OVC017,0.00,VWS V14.01,2013-09-01 12:36:00,
2013-09-01 08:41:00,75.0,56.2,29.41,WNW,300,0.0,0.0,52,0.00,,OVC017,0.00,VWS V14.01,2013-09-01 12:41:00,
2013-09-01 08:46:00,75.0,55.1,29.41,WNW,300,0.0,0.0,50,0.00,,OVC017,0.00,VWS V14.01,2013-09-01 12:46:00,
2013-09-01 08:51:00,75.2,54.2,29.41,WNW,300,0.0,0.0,48,0.00,,BKN055,0.00,VWS V14.01,2013-09-01 12:51:00,
2013-09-01 08:56:00,75.2,53.6,29.41,SSE,152,0.0,0.0,47,0.00,,BKN055,0.00,VWS V14.01,2013-09-01 12:56:00,
2013-09-01 09:01:00,75.4,53.2,29.41,SSE,152,0.0,0.0,46,0.00,,-RA,0.00,VWS V14.01,2013-09-01 13:01:00,
2013-09-01 09:06:00,75.6,52.1,29.41,SSE,152,0.0,0.0,44,0.00,,-RA,0.00,VWS V14.01,2013-09-01 13:06:00,
2013-09-01 09:11:00,75.7,51.7,29.41,ESE,122,0.0,0.0,43,0.00,,-RA,0.00,VWS V14.01,2013-09-01 13:11:00,
2013-09-01 09:16:00,75.7,51.7,29.41,NNE,30,0.0,0.0,43,0.00,,-RA,0.00,VWS V14.01,2013-09-01 13:16:00,
2013-09-01 09:21:00,76.1,51.4,29.41,NNE,30,0.0,0.0,42,0.00,,-RA,0.00,VWS V14.01,2013-09-01 13:21:00,
2013-09-01 09:26:00,75.9,47.8,29.41,NW,306,3.6,3.6,37,0.00,,-RA,0.00,VWS V14.01,2013-09-01 13:26:00,
2013-09-01 09:31:00,76.3,47.4,29.41,NW,307,0.0,0.0,36,0.00,, +RA,0.00,VWS V14.01,2013-09-01 13:31:00,
2013-09-01 09:36:00,76.3,46.7,29.41,NW,306,0.0,0.0,35,0.00,, +RA,0.00,VWS V14.01,2013-09-01 13:36:00,
2013-09-01 09:41:00,76.3,46.7,29.41,NW,306,0.0,0.0,35,0.00,, +RA,0.00,VWS V14.01,2013-09-01 13:41:00,
2013-09-01 09:46:00,76.3,46.7,29.41,NW,307,0.0,0.0,35,0.00,, +RA,0.00,VWS V14.01,2013-09-01 13:46:00,
2013-09-01 09:51:00,76.1,46.5,29.41,NW,307,0.0,0.0,35,0.00,,-RA,0.00,VWS V14.01,2013-09-01 13:51:00,
2013-09-01 09:56:00,76.3,47.4,29.41,NW,306,0.0,0.0,36,0.00,,-RA,0.00,VWS V14.01,2013-09-01 13:56:00,
2013-09-01 10:01:00,76.3,47.4,29.41,NW,306,0.0,0.0,36,0.00,,,0.00,VWS V14.01,2013-09-01 14:01:00,
2013-09-01 10:06:00,76.1,48.0,29.41,SE,144,0.0,0.0,37,0.00,,,0.00,VWS V14.01,2013-09-01 14:06:00,
2013-09-01 10:11:00,75.6,47.5,29.41,SE,144,0.0,0.0,37,0.00,,,0.00,VWS V14.01,2013-09-01 14:11:00,
2013-09-01 10:16:00,75.4,48.0,29.41,SE,144,0.0,0.0,38,0.00,,,0.00,VWS V14.01,2013-09-01 14:16:00,
2013-09-01 10:21:00,75.2,47.9,29.41,SE,144,0.0,0.0,38,0.00,,,0.00,VWS V14.01,2013-09-01 14:21:00,
2013-09-01 10:26:00,75.0,49.1,29.41,SE,144,0.0,0.0,40,0.00,,,0.00,VWS V14.01,2013-09-01 14:26:00,
2013-09-01 10:31:00,75.0,49.1,29.41,SE,144,0.0,0.0,40,0.00,,,0.00,VWS V14.01,2013-09-01 14:31:00,
2013-09-01 10:36:00,74.8,49.6,29.41,SE,144,0.0,0.0,41,0.00,,,0.00,VWS V14.01,2013-09-01 14:36:00,
2013-09-01 10:41:00,74.8,49.6,29.41,West,274,0.0,0.0,41,0.00,,,0.00,VWS V14.01,2013-09-01 14:41:00,
2013-09-01 10:46:00,74.7,49.4,29.41,West,274,0.0,0.0,41,0.00,,,0.00,VWS V14.01,2013-09-01 14:46:00,
2013-09-01 10:51:00,74.8,49.6,29.41,SSE,149,0.0,0.0,41,0.00,,,0.00,VWS V14.01,2013-09-01 14:51:00,
2013-09-01 10:56:00,75.0,49.8,29.41,SSE,149,0.0,0.0,41,0.00,,,0.00,VWS V14.01,2013-09-01 14:56:00,
2013-09-01 11:01:00,75.0,49.1,29.41,SSE,149,0.0,0.0,40,0.00,,,0.00,VWS V14.01,2013-09-01 15:01:00,
2013-09-01 11:06:00,74.8,48.9,29.41,SSE,149,0.0,0.0,40,0.16,,,0.16,VWS V14.01,2013-09-01 15:06:00,
2013-09-01 11:11:00,74.5,48.6,29.41,SSE,149,0.0,0.0,40,0.39,,,0.39,VWS V14.01,2013-09-01 15:11:00,
2013-09-01 11:16:00,74.1,48.9,29.41,SSE,149,0.0,0.0,41,0.51,,,0.00,VWS V14.01,2013-09-01 15:16:00,
2013-09-01 11:21:00,73.9,49.4,29.41,SSE,149,0.0,0.0,42,0.67,,RA,0.67,VWS V14.01,2013-09-01 15:21:00,
2013-09-01 11:26:00,73.9,51.3,29.41,SSE,149,0.0,0.0,45,0.67,,RA,0.67,VWS V14.01,2013-09-01 15:26:00,
2013-09-01 11:31:00,74.1,52.0,29.41,SSE,149,0.0,0.0,46,0.67,,RA,0.67,VWS V14.01,2013-09-01 15:31:00,
2013-09-01 11:36:00,74.1,53.8,29.41,NW,319,0.0,0.0,49,0.67,,RA,0.67,VWS V14.01,2013-09-01 15:36:00,
2013-09-01 11:41:00,74.3,55.6,29.41,NW,319,0.0,0.0,52,0.67,,-RA,0.67,VWS V14.01,2013-09-01 15:41:00,
2013-09-01 11:46:00,74.3,56.1,29.41,NW,319,0.0,0.0,53,0.67,,-RA,0.00,VWS V14.01,2013-09-01 15:46:00,
2013-09-01 11:51:00,74.5,57.3,29.41,NW,319,0.0,0.0,55,0.67,,-RA,0.67,VWS V14.01,2013-09-01 15:51:00,
2013-09-01 11:56:00,74.8,57.6,29.41,East,97,0.0,0.0,55,0.67,,-RA,0.67,VWS V14.01,2013-09-01 15:56:00,
2013-09-01 12:01:00,75.0,57.8,29.41,SSE,166,0.0,0.0,55,0.67,,,0.67,VWS V14.01,2013-09-01 16:01:00,
2013-09-01 12:06:00,75.0,57.8,29.41,South,172,0.0,2.2,55,0.55,,,0.67,VWS V14.01,2013-09-01 16:06:00,
2013-09-01 12:11:00,75.4,59.1,29.38,SE,143,0.0,0.0,57,0.28,,,0.67,VWS V14.01,2013-09-01 16:11:00,
2013-09-01 12:16:00,75.9,59.6,29.38,SE,143,0.0,0.0,57,0.16,,,0.00,VWS V14.01,2013-09-01 16:16:00,
2013-09-01 12:21:00,76.3,60.4,29.38,ESE,119,0.0,0.0,58,0.04,,,0.67,VWS V14.01,2013-09-01 16:21:00,
2013-09-01 12:26:00,76.3,59.5,29.38,SSE,156,0.0,0.0,56,0.00,,,0.00,VWS V14.01,2013-09-01 16:26:00,
2013-09-01 12:31:00,76.1,58.8,29.38,WSW,240,0.0,0.0,55,0.00,,,0.67,VWS V14.01,2013-09-01 16:31:00,
2013-09-01 12:36:00,76.3,58.4,29.38,SSE,150,0.0,0.0,54,0.00,,,0.67,VWS V14.01,2013-09-01 16:36:00,
2013-09-01 12:41:00,76.6,57.7,29.38,SSE,150,0.0,0.0,52,0.00,,,0.67,VWS V14.01,2013-09-01 16:41:00,
2013-09-01 12:46:00,77.0,57.5,29.38,SSE,150,0.0,0.0,51,0.00,,,0.67,VWS V14.01,2013-09-01 16:46:00,
2013-09-01 12:51:00,77.4,57.3,29.38,SSE,150,0.0,0.0,50,0.00,,,0.67,VWS V14.01,2013-09-01 16:51:00,
2013-09-01 12:57:00,78.1,57.4,29.38,NW,310,0.0,0.0,49,0.00,,,0.00,VWS V14.01,2013-09-01 16:57:00,
2013-09-01 13:02:00,78.8,56.3,29.38,North,4,0.0,0.0,46,0.00,,SCT009,0.67,VWS V14.01,2013-09-01 17:02:00,
2013-09-01 13:07:00,79.5,55.7,29.38,ENE,62,0.0,0.0,44,0.00,,SCT009,0.00,VWS V14.01,2013-09-01 17:07:00,
2013-09-01 13:12:00,79.5,53.8,29.38,SSE,152,0.0,0.0,41,0.00,,SCT009,0.67,VWS V14.01,2013-09-01 17:12:00,
2013-09-01 13:17:00,79.5,50.2,29.38,SE,137,0.0,0.0,36,0.00,,SCT009,0.67,VWS V14.01,2013-09-01 17:17:00,
2013-09-01 13:22:00,79.5,48.7,29.38,ESE,112,0.0,0.0,34,0.00,,SCT009,0.67,VWS V14.01,2013-09-01 17:22:00,
2013-09-01 13:27:00,79.5,47.9,29.38,SE,141,2.7,3.1,33,0.00,,SCT009,0.67,VWS V14.01,2013-09-01 17:27:00,
2013-09-01 13:32:00,79.7,47.3,29.38,East,86,2.7,2.7,32,0.00,,SCT009,0.67,VWS V14.01,2013-09-01 17:32:00,
2013-09-01 13:37:00,79.9,47.4,29.38,East,86,0.0,0.0,32,0.00,,SCT009,0.67,VWS V14.01,2013-09-01 17:37:00,
2013-09-01 13:42:00,80.4,48.7,29.38,East,86,0.0,0.0,33,0.00,,SCT009,0.00,VWS V14.01,2013-09-01 17:42:00,
2013-09-01 13:47:00,80.4,48.7,29.38,East,86,0.0,0.0,33,0.00,,SCT009,0.67,VWS V14.01,2013-09-01 17:47:00,
2013-09-01 13:52:00,80.6,47.2,29.38,SSE,154,0.0,0.0,31,0.00,,SCT009,0.67,VWS V14.01,2013-09-01 17:52:00,
2013-09-01 13:57:00,80.6,46.3,29.38,SE,144,0.0,0.0,30,0.00,,SCT009,0.00,VWS V14.01,2013-09-01 17:57:00,
2013-09-01 14:02:00,80.6,46.3,29.38,East,87,0.0,0.0,30,0.00,,FEW021,0.67,VWS V14.01,2013-09-01 18:02:00,
2013-09-01 14:07:00,80.6,46.3,29.38,East,87,0.0,0.0,30,0.00,,FEW021,0.67,VWS V14.01,2013-09-01 18:07:00,
2013-09-01 14:12:00,80.6,45.4,29.38,ENE,58,0.0,0.0,29,0.00,,BKN023,0.67,VWS V14.01,2013-09-01 18:12:00,
2013-09-01 14:17:00,80.4,46.2,29.38,ESE,115,0.0,0.0,30,0.00,,BKN023,0.00,VWS V14.01,2013-09-01 18:17:00,
2013-09-01 14:22:00,80.2,46.0,29.38,ESE,120,0.0,0.0,30,0.00,,BKN023,0.67,VWS V14.01,2013-09-01 18:22:00,
2013-09-01 14:27:00,80.2,46.0,29.38,NNW,333,0.0,0.0,30,0.00,,BKN023,0.00,VWS V14.01,2013-09-01 18:27:00,
2013-09-01 14:32:00,80.4,46.2,29.38,NNW,333,0.0,0.0,30,0.00,,BKN023,0.67,VWS V14.01,2013-09-01 18:32:00,
2013-09-01 14:37:00,80.4,44.4,29.38,SSE,156,0.0,0.0,28,0.00,,BKN023,0.67,VWS V14.01,2013-09-01 18:37:00,
2013-09-01 14:42:00,80.8,44.7,29.38,SE,143,0.0,0.0,28,0.00,,BKN023,0.00,VWS V14.01,2013-09-01 18:42:00,
2013-09-01 14:47:00,81.0,45.8,29.38,SE,143,0.0,0.0,29,0.00,,BKN023,0.67,VWS V14.01,2013-09-01 18:47:00,
2013-09-01 14:52:00,80.8,44.7,29.38,South,176,0.0,2.2,28,0.00,,BKN023,0.67,VWS V14.01,2013-09-01 18:52:00,
2013-09-01 14:57:00,81.0,44.8,29.38,ESE,115,0.0,0.0,28,0.00,,BKN023,0.67,VWS V14.01,2013-09-01 18:57:00,
2013-09-01 15:02:00,81.1,41.0,29.38,SE,130,0.0,4.9,24,0.00,,BKN023,0.00,VWS V14.01,2013-09-01 19:02:00,
2013-09-01 15:07:00,81.3,40.0,29.38,SE,139,0.0,0.0,23,0.00,,BKN023,0.67,VWS V14.01,2013-09-01 19:07:00,
2013-09-01 15:12:00,81.7,41.4,29.38,SE,142,0.0,0.0,24,0.00,,BKN023,0.67,VWS V14.01,2013-09-01 19:12:00,
2013-09-01 15:17:00,82.0,41.7,29.38,SE,138,0.0,0.0,24,0.00,,BKN023,0.00,VWS V14.01,2013-09-01 19:17:00,
2013-09-01 15:22:00,82.0,41.7,29.35,South,185,0.0,0.0,24,0.00,,SCT027,0.67,VWS V14.01,2013-09-01 19:22:00,
2013-09-01 15:27:00,81.9,40.5,29.35,WSW,256,0.0,0.0,23,0.00,,SCT027,0.67,VWS V14.01,2013-09-01 19:27:00,
2013-09-01 15:32:00,81.7,40.3,29.35,SSE,148,0.0,0.0,23,0.00,,SCT027,0.00,VWS V14.01,2013-09-01 19:32:00,
2013-09-01 15:37:00,81.7,40.3,29.35,SSE,148,0.0,0.0,23,0.00,,SCT027,0.67,VWS V14.01,2013-09-01 19:37:00,
2013-09-01 15:42:00,81.7,39.2,29.35,SSE,151,0.0,0.0,22,0.00,,SCT027,0.67,VWS V14.01,2013-09-01 19:42:00,
2013-09-01 15:47:00,81.9,39.3,29.35,SE,128,0.0,0.0,22,0.00,,SCT027,0.67,VWS V14.01,2013-09-01 19:47:00,
2013-09-01 15:52:00,82.0,39.5,29.35,East,81,0.0,0.0,22,0.00,,SCT027,0.67,VWS V14.01,2013-09-01 19:52:00,
2013-09-01 15:57:00,82.0,39.5,29.35,ESE,111,0.0,0.0,22,0.00,,SCT027,0.67,VWS V14.01,2013-09-01 19:57:00,
2013-09-01 16:02:00,82.2,39.6,29.35,ESE,111,0.0,0.0,22,0.00,,FEW026,0.00,VWS V14.01,2013-09-01 20:02:00,
2013-09-01 16:07:00,82.4,39.8,29.35,SSE,151,4.9,4.9,22,0.00,,FEW026,0.67,VWS V14.01,2013-09-01 20:07:00,
2013-09-01 16:12:00,82.2,38.4,29.35,SSE,149,0.0,0.0,21,0.00,,FEW026,0.67,VWS V14.01,2013-09-01 20:12:00,
2013-09-01 16:17:00,82.0,39.5,29.35,SE,137,0.0,0.0,22,0.00,,FEW026,0.67,VWS V14.01,2013-09-01 20:17:00,
2013-09-01 16:22:00,81.9,39.3,29.35,SE,137,0.0,0.0,22,0.00,,FEW026,0.67,VWS V14.01,2013-09-01 20:22:00,
2013-09-01 16:27:00,81.7,41.4,29.35,SE,137,0.0,0.0,24,0.00,,FEW026,0.00,VWS V14.01,2013-09-01 20:27:00,
2013-09-01 16:32:00,81.5,40.2,29.35,West,266,0.0,0.0,23,0.00,,FEW026,0.67,VWS V14.01,2013-09-01 20:32:00,
2013-09-01 16:37:00,81.3,40.0,29.35,SE,130,0.0,0.0,23,0.00,,FEW026,0.67,VWS V14.01,2013-09-01 20:37:00,
2013-09-01 16:42:00,81.3,41.1,29.35,SE,130,0.0,0.0,24,0.00,,FEW026,0.67,VWS V14.01,2013-09-01 20:42:00,
2013-09-01 16:47:00,81.3,41.1,29.35,SSE,148,0.0,0.0,24,0.00,,FEW026,0.67,VWS V14.01,2013-09-01 20:47:00,
2013-09-01 16:52:00,81.3,41.1,29.35,SSE,148,0.0,0.0,24,0.00,,FEW026,0.67,VWS V14.01,2013-09-01 20:52:00,
2013-09-01 16:57:00,81.5,41.3,29.35,SSE,148,0.0,0.0,24,0.00,,FEW026,0.67,VWS V14.01,2013-09-01 20:57:00,
2013-09-01 17:02:00,81.3,40.0,29.35,SE,126,0.0,0.0,23,0.00,,FEW030,0.67,VWS V14.01,2013-09-01 21:02:00,
2013-09-01 17:07:00,81.3,41.1,29.35,SSE,155,0.0,0.0,24,0.00,,FEW030,0.67,VWS V14.01,2013-09-01 21:07:00,
2013-09-01 17:12:00,81.1,41.0,29.35,SE,137,0.0,0.0,24,0.00,,FEW030,0.67,VWS V14.01,2013-09-01 21:12:00,
2013-09-01 17:17:00,81.0,39.7,29.35,SSE,161,0.0,0.0,23,0.00,,FEW030,0.67,VWS V14.01,2013-09-01 21:17:00,
2013-09-01 17:22:00,81.0,40.8,29.35,SSE,161,0.0,0.0,24,0.00,,FEW030,0.67,VWS V14.01,2013-09-01 21:22:00,
2013-09-01 17:27:00,80.8,40.7,29.35,SSE,161,0.0,0.0,24,0.00,,FEW030,0.67,VWS V14.01,2013-09-01 21:27:00,
2013-09-01 17:32:00,80.8,40.7,29.35,SSE,161,0.0,0.0,24,0.00,,BKN033,0.67,VWS V14.01,2013-09-01 21:32:00,
2013-09-01 17:37:00,80.8,41.7,29.35,SSE,161,0.0,0.0,25,0.00,,BKN033,0.00,VWS V14.01,2013-09-01 21:37:00,
2013-09-01 17:42:00,80.8,42.7,29.35,SSE,163,0.0,0.0,26,0.00,,BKN033,0.67,VWS V14.01,2013-09-01 21:42:00,
2013-09-01 17:47:00,80.8,42.7,29.35,SSE,161,0.0,0.0,26,0.00,,BKN033,0.67,VWS V14.01,2013-09-01 21:47:00,
2013-09-01 17:52:00,81.0,42.9,29.35,SSE,149,0.0,0.0,26,0.00,,BKN041,0.67,VWS V14.01,2013-09-01 21:52:00,
2013-09-01 17:57:00,81.3,43.2,29.35,SSE,149,0.0,0.0,26,0.00,,BKN041,0.67,VWS V14.01,2013-09-01 21:57:00,
2013-09-01 18:02:00,81.3,42.2,29.35,SSE,147,0.0,0.0,25,0.00,,BKN070,0.67,VWS V14.01,2013-09-01 22:02:00,
2013-09-01 18:07:00,81.3,42.2,29.35,SSE,147,0.0,0.0,25,0.00,,BKN070,0.67,VWS V14.01,2013-09-01 22:07:00,
2013-09-01 18:12:00,81.1,43.0,29.35,SSE,147,0.0,0.0,26,0.00,,BKN070,0.67,VWS V14.01,2013-09-01 22:12:00,
2013-09-01 18:17:00,81.0,42.9,29.35,SSE,147,0.0,0.0,26,0.00,,BKN070,0.67,VWS V14.01,2013-09-01 22:17:00,
2013-09-01 18:22:00,80.6,43.6,29.35,SSE,147,0.0,0.0,27,0.00,,BKN070,0.67,VWS V14.01,2013-09-01 22:22:00,
2013-09-01 23:11:00,72.5,52.3,29.38,WNW,303,0.0,0.0,49,0.00,,BKN070,0.67,VWS V14.01,2013-09-02 03:11:00,
2013-09-01 23:16:00,72.5,52.3,29.38,WNW,303,0.0,0.0,49,0.00,,BKN070,0.67,VWS V14.01,2013-09-02 03:16:00,
2013-09-01 23:21:00,72.3,52.1,29.38,WNW,303,0.0,0.0,49,0.00,,SCT025,0.67,VWS V14.01,2013-09-02 03:21:00,
2013-09-01 23:26:00,72.3,52.1,29.38,WNW,303,0.0,0.0,49,0.00,,SCT025,0.67,VWS V14.01,2013-09-02 03:26:00,
2013-09-01 23:31:00,72.1,51.9,29.38,WNW,303,0.0,0.0,49,0.00,,SCT025,0.67,VWS V14.01,2013-09-02 03:31:00,
2013-09-01 23:36:00,72.1,51.9,29.38,WNW,303,0.0,0.0,49,0.00,,SCT025,0.67,VWS V14.01,2013-09-02 03:36:00,
2013-09-01 23:41:00,72.0,52.3,29.35,WNW,303,0.0,0.0,50,0.00,,SCT025,0.67,VWS V14.01,2013-09-02 03:41:00,
2013-09-01 23:46:00,72.0,52.3,29.35,WNW,303,0.0,0.0,50,0.00,,SCT025,0.67,VWS V14.01,2013-09-02 03:46:00,
2013-09-01 23:51:00,71.8,52.2,29.35,WNW,303,0.0,0.0,50,0.00,,SCT025,0.67,VWS V14.01,2013-09-02 03:51:00,
2013-09-01 23:56:00,71.8,52.2,29.35,WNW,303,0.0,0.0,50,0.00,,SCT025,0.67,VWS V14.01,2013-09-02 03:56:00,